When you browse on this site, cookies collect data to enhance your experience and personalize the content and advertising you see.
Visit our Privacy Policy to learn more. By continuing to use the site, you agree to this use of cookies and data.
EN

Hourly Weather Godzislaw

Today, 22 September, Tuesday

Time Temperature Precipitation Wind Pressure Humidity
00:00 +13°C° 0 mm 2 mps 749 mmHg 71%
01:00 +13°C° 0 mm 2 mps 748 mmHg 74%
02:00 +13°C° 0 mm 2 mps 748 mmHg 76%
03:00 +13°C° 0 mm 2 mps 748 mmHg 78%
04:00 +13°C° 0 mm 2 mps 748 mmHg 80%
05:00 +13°C° 0 mm 2 mps 747 mmHg 78%
06:00 +14°C° 0 mm 2 mps 747 mmHg 77%
07:00 +14°C° 0 mm 2 mps 747 mmHg 73%
08:00 +16°C° 0 mm 2 mps 747 mmHg 68%
09:00 +18°C° 0 mm 3 mps 747 mmHg 63%
10:00 +20°C° 0 mm 3 mps 747 mmHg 58%
11:00 +22°C° 0 mm 3 mps 746 mmHg 52%
12:00 +24°C° 0 mm 3 mps 746 mmHg 47%
13:00 +25°C° 0 mm 4 mps 746 mmHg 42%
14:00 +25°C° 0 mm 3 mps 746 mmHg 44%
15:00 +25°C° 0 mm 3 mps 745 mmHg 46%
16:00 +25°C° 0 mm 2 mps 745 mmHg 48%
17:00 +23°C° 0 mm 2 mps 744 mmHg 54%
18:00 +20°C° 0 mm 2 mps 744 mmHg 59%
19:00 +18°C° 0 mm 2 mps 744 mmHg 64%
20:00 +18°C° 0 mm 2 mps 743 mmHg 66%
21:00 +17°C° 0 mm 2 mps 743 mmHg 68%
22:00 +17°C° 0 mm 3 mps 743 mmHg 70%
23:00 +16°C° 0 mm 3 mps 743 mmHg 72%

Tomorrow, 23 September, Wednesday

Time Temperature Precipitation Wind Pressure Humidity
00:00 +16°C° 0 mm 3 mps 743 mmHg 74%
01:00 +16°C° 0 mm 3 mps 743 mmHg 75%
02:00 +14°C° 0 mm 3 mps 742 mmHg 77%
03:00 +14°C° 0 mm 3 mps 742 mmHg 79%
04:00 +14°C° 0 mm 3 mps 742 mmHg 81%
05:00 +14°C° 0 mm 3 mps 742 mmHg 80%
06:00 +16°C° 0 mm 3 mps 742 mmHg 80%
07:00 +16°C° 0 mm 3 mps 742 mmHg 80%
08:00 +18°C° 0 mm 3 mps 742 mmHg 73%
09:00 +20°C° 0 mm 3 mps 742 mmHg 65%
10:00 +22°C° 0 mm 3 mps 742 mmHg 58%
11:00 +24°C° 0 mm 3 mps 742 mmHg 55%
12:00 +25°C° 0 mm 3 mps 742 mmHg 52%
13:00 +26°C° 0 mm 3 mps 742 mmHg 49%
14:00 +25°C° 0.1 mm 2 mps 741 mmHg 51%
15:00 +25°C° 0.1 mm 2 mps 741 mmHg 53%
16:00 +25°C° 0.1 mm 2 mps 741 mmHg 55%
17:00 +23°C° 0.4 mm 2 mps 741 mmHg 62%
18:00 +21°C° 0.4 mm 1 mps 741 mmHg 69%
19:00 +19°C° 0.4 mm 1 mps 741 mmHg 76%
20:00 +18°C° 0 mm 2 mps 741 mmHg 79%
21:00 +17°C° 0 mm 2 mps 741 mmHg 81%
22:00 +17°C° 0 mm 2 mps 741 mmHg 84%
23:00 +17°C° 0 mm 2 mps 741 mmHg 84%

Day after tomorrow, 24 September, Thursday

Time Temperature Precipitation Wind Pressure Humidity
00:00 +16°C° 0 mm 2 mps 741 mmHg 85%
01:00 +16°C° 0 mm 2 mps 741 mmHg 86%
02:00 +16°C° 0 mm 2 mps 740 mmHg 85%
03:00 +15°C° 0 mm 2 mps 740 mmHg 85%
04:00 +15°C° 0 mm 2 mps 740 mmHg 85%
05:00 +14°C° 0 mm 3 mps 740 mmHg 81%
06:00 +14°C° 0 mm 3 mps 740 mmHg 77%
07:00 +14°C° 0 mm 3 mps 740 mmHg 74%
08:00 +17°C° 0 mm 3 mps 740 mmHg 67%
09:00 +19°C° 0 mm 4 mps 740 mmHg 61%
10:00 +21°C° 0 mm 4 mps 741 mmHg 55%
11:00 +22°C° 0 mm 4 mps 741 mmHg 53%
12:00 +23°C° 0 mm 5 mps 741 mmHg 50%
13:00 +25°C° 0 mm 5 mps 741 mmHg 48%
14:00 +23°C° 0 mm 4 mps 741 mmHg 51%
15:00 +24°C° 0 mm 3 mps 741 mmHg 54%
16:00 +24°C° 0 mm 2 mps 741 mmHg 57%
17:00 +21°C° 0.6 mm 2 mps 741 mmHg 67%
18:00 +20°C° 0.6 mm 1 mps 741 mmHg 76%
19:00 +18°C° 0.6 mm 1 mps 740 mmHg 85%
20:00 +16°C° 0.1 mm 1 mps 740 mmHg 86%
21:00 +16°C° 0.1 mm 1 mps 740 mmHg 88%
22:00 +16°C° 0.1 mm 1 mps 740 mmHg 89%
23:00 +16°C° 0 mm 2 mps 740 mmHg 89%

25 September, Friday

Time Temperature Precipitation Wind Pressure Humidity
00:00 +15°C° 0 mm 2 mps 740 mmHg 90%
01:00 +15°C° 0 mm 2 mps 740 mmHg 90%
02:00 +15°C° 0 mm 2 mps 739 mmHg 90%
03:00 +15°C° 0 mm 2 mps 739 mmHg 91%
04:00 +15°C° 0 mm 2 mps 739 mmHg 91%
05:00 +15°C° 0 mm 2 mps 738 mmHg 90%
06:00 +15°C° 0 mm 2 mps 738 mmHg 89%
07:00 +15°C° 0 mm 2 mps 737 mmHg 88%
08:00 +17°C° 0 mm 4 mps 736 mmHg 81%
09:00 +19°C° 0 mm 5 mps 736 mmHg 74%
10:00 +20°C° 0 mm 6 mps 735 mmHg 67%
11:00 +21°C° 0.1 mm 6 mps 734 mmHg 63%
12:00 +22°C° 0.1 mm 7 mps 733 mmHg 60%
13:00 +23°C° 0.1 mm 7 mps 733 mmHg 56%
14:00 +22°C° 0.8 mm 6 mps 732 mmHg 65%
15:00 +20°C° 0.8 mm 6 mps 731 mmHg 74%
16:00 +19°C° 0.8 mm 5 mps 731 mmHg 83%
17:00 +17°C° 1.5 mm 5 mps 731 mmHg 85%
18:00 +16°C° 1.5 mm 5 mps 731 mmHg 88%
19:00 +15°C° 1.5 mm 5 mps 731 mmHg 91%
20:00 +15°C° 0.5 mm 5 mps 732 mmHg 91%
21:00 +14°C° 0.5 mm 5 mps 732 mmHg 92%
22:00 +13°C° 0.5 mm 5 mps 733 mmHg 92%
23:00 +13°C° 0.3 mm 4 mps 733 mmHg 92%

26 September, Saturday

Time Temperature Precipitation Wind Pressure Humidity
00:00 +13°C° 0.3 mm 4 mps 734 mmHg 91%
01:00 +12°C° 0.3 mm 4 mps 735 mmHg 91%
02:00 +12°C° 0 mm 3 mps 735 mmHg 91%
03:00 +13°C° 0 mm 2 mps 735 mmHg 91%
04:00 +13°C° 0 mm 1 mps 735 mmHg 91%
05:00 +13°C° 0 mm 1 mps 735 mmHg 91%
06:00 +13°C° 0 mm 2 mps 735 mmHg 91%
07:00 +13°C° 0 mm 2 mps 735 mmHg 91%
08:00 +12°C° 1.5 mm 3 mps 735 mmHg 92%
09:00 +12°C° 1.5 mm 4 mps 735 mmHg 93%
10:00 +12°C° 1.5 mm 4 mps 735 mmHg 94%
11:00 +12°C° 2.7 mm 5 mps 734 mmHg 94%
12:00 +12°C° 2.7 mm 5 mps 734 mmHg 95%
13:00 +12°C° 2.7 mm 5 mps 734 mmHg 95%
14:00 +13°C° 0.8 mm 5 mps 734 mmHg 95%
15:00 +13°C° 0.8 mm 5 mps 734 mmHg 96%
16:00 +13°C° 0.8 mm 4 mps 734 mmHg 96%
17:00 +13°C° 0.3 mm 3 mps 734 mmHg 97%
18:00 +15°C° 0.3 mm 2 mps 734 mmHg 97%
19:00 +15°C° 0.3 mm 2 mps 734 mmHg 98%
20:00 +15°C° 0 mm 1 mps 734 mmHg 98%
21:00 +15°C° 0 mm 1 mps 734 mmHg 97%
22:00 +15°C° 0 mm 1 mps 734 mmHg 97%
23:00 +15°C° 0 mm 1 mps 734 mmHg 97%

27 September, Sunday

Time Temperature Precipitation Wind Pressure Humidity
00:00 +15°C° 0 mm 1 mps 734 mmHg 97%
01:00 +15°C° 0 mm 1 mps 734 mmHg 96%
02:00 +15°C° 0 mm 2 mps 734 mmHg 96%
03:00 +14°C° 0 mm 3 mps 733 mmHg 96%
04:00 +14°C° 0 mm 3 mps 733 mmHg 95%
05:00 +15°C° 0.1 mm 4 mps 733 mmHg 93%
06:00 +15°C° 0.1 mm 4 mps 733 mmHg 90%
07:00 +16°C° 0.1 mm 5 mps 733 mmHg 87%
08:00 +16°C° 0 mm 5 mps 734 mmHg 86%
09:00 +16°C° 0 mm 5 mps 734 mmHg 85%
10:00 +16°C° 0 mm 5 mps 734 mmHg 84%
11:00 +17°C° 0 mm 5 mps 734 mmHg 80%
12:00 +17°C° 0 mm 5 mps 735 mmHg 77%
13:00 +19°C° 0 mm 5 mps 735 mmHg 74%
14:00 +19°C° 0 mm 5 mps 735 mmHg 73%
15:00 +19°C° 0 mm 5 mps 736 mmHg 73%
16:00 +19°C° 0 mm 4 mps 736 mmHg 72%
17:00 +18°C° 0 mm 4 mps 736 mmHg 72%
18:00 +18°C° 0 mm 4 mps 736 mmHg 73%
19:00 +17°C° 0 mm 4 mps 737 mmHg 73%
20:00 +15°C° 0 mm 4 mps 737 mmHg 75%
21:00 +16°C° 0 mm 3 mps 737 mmHg 77%
22:00 +16°C° 0 mm 3 mps 738 mmHg 79%
23:00 +14°C° 0 mm 3 mps 738 mmHg 82%
Show more